Homestead, FL

3:12 PM EST on January 20, 2017 (GMT -0500)
Dade County-Homestead Regional

Weather History for KHST - June, 2014

Change the Weather History Date:

Thursday, June 5, 2014

  Actual Average Record
Temperature  
Mean Temperature 79 °F -  
Max Temperature 85 °F 88 °F 97 °F (1945)
Min Temperature 73 °F 71 °F 56 °F (1955)
Cooling Degree Days 14    
Growing Degree Days 29 (Base 50)    
Moisture  
Dew Point 67 °F    
Average Humidity 65    
Maximum Humidity 76    
Minimum Humidity 58    
Precipitation  
Precipitation 0.00 in - - ()
Sea Level Pressure  
Sea Level Pressure 29.95 in    
Wind  
Wind Speed 7 mph (ENE)    
Max Wind Speed 14 mph    
Max Gust Speed 16 mph    
Visibility 10 miles    
Events      
Averages and records for this station are not official NWS values.
T = Trace of Precipitation, MM = Missing Value Source: NWS Daily Summary

Daily Weather History Graph

Daily Weather History Graph

Search for Another Location

Airport or City:

Trip Planner

Search our weather history database for the weather conditions in past years. The results will help you decide how hot, cold, wet, or windy it might be!

Date:

Astronomy

Jun. 05, 2014 Rise Set
Actual Time 6:30 AM EDT 8:10 PM EDT
Civil Twilight 6:04 AM EDT 8:35 PM EDT
Nautical Twilight 5:33 AM EDT 9:06 PM EDT
Astronomical Twilight 5:01 AM EDT 9:39 PM EDT
Moon 1:12 PM EDT (6/5) 1:06 AM EDT (6/5)
Length of Visible Light 14h 31m
Length of Day
13h 39m
Waxing Crescent, 48% of the Moon is Illuminated
Jun 5
Waxing Crescent
Jun 5
First Quarter
Jun 13
Full
Jun 19
Last Quarter
Jun 27
New

Hourly Weather History & Observations

Time (EDT) Temp. Heat Index Dew Point Humidity Pressure Visibility Wind Dir Wind Speed Gust Speed Precip Events Conditions
12:58 AM 77.4 °F - 67.5 °F 71% 29.96 in 10.0 mi East 6.9 mph - N/A   Clear
1:58 AM 76.8 °F - 66.4 °F 70% 29.95 in 10.0 mi East 4.6 mph - N/A   Clear
2:58 AM 75.4 °F - 65.1 °F 70% 29.92 in 10.0 mi East 4.6 mph - N/A   Clear
3:58 AM 74.8 °F - 64.6 °F 70% 29.92 in 10.0 mi ENE 3.5 mph - N/A   Clear
4:58 AM 74.1 °F - 63.5 °F 69% 29.93 in 10.0 mi ENE 3.5 mph - N/A   Clear
5:58 AM 73.9 °F - 63.0 °F 68% 29.92 in 10.0 mi ENE 3.5 mph - N/A   Clear
6:58 AM 74.1 °F - 63.0 °F 68% 29.94 in 10.0 mi ENE 4.6 mph - N/A   Clear
7:58 AM 79.3 °F - 64.9 °F 61% 29.94 in 10.0 mi ENE 5.8 mph - N/A   Clear
8:58 AM 81.3 °F 83.6 °F 66.9 °F 61% 29.96 in 10.0 mi East 11.5 mph - N/A   Clear
9:58 AM 82.2 °F 85.3 °F 68.5 °F 63% 29.97 in 10.0 mi East 11.5 mph - N/A   Clear
10:58 AM 84.2 °F 88.4 °F 69.8 °F 62% 29.97 in 10.0 mi East 9.2 mph - N/A   Partly Cloudy
11:58 AM 83.8 °F 87.5 °F 68.9 °F 61% 29.97 in 10.0 mi East 10.4 mph - N/A   Clear
12:58 PM 84.2 °F 87.3 °F 68.0 °F 58% 29.97 in 10.0 mi East 10.4 mph 16.1 mph N/A   Unknown
12:59 PM 84.2 °F 87.3 °F 68.0 °F 58% 29.97 in 10.0 mi East 10.4 mph 16.1 mph N/A   Partly Cloudy
1:58 PM 85.1 °F 89.1 °F 69.4 °F 59% 29.96 in 10.0 mi East 10.4 mph - N/A   Partly Cloudy
2:58 PM 85.1 °F 88.8 °F 68.9 °F 58% 29.93 in 10.0 mi ENE 11.5 mph - N/A   Clear
3:58 PM 84.4 °F 88.5 °F 69.4 °F 61% 29.93 in 10.0 mi ENE 12.7 mph - N/A   Clear
4:58 PM 84.4 °F 87.9 °F 68.7 °F 59% 29.92 in 10.0 mi East 13.8 mph - N/A   Clear
5:58 PM 83.5 °F 86.7 °F 68.2 °F 60% 29.92 in 10.0 mi East 11.5 mph - N/A   Clear
6:58 PM 82.6 °F 85.1 °F 66.9 °F 59% 29.93 in 10.0 mi East 9.2 mph - N/A   Clear
7:58 PM 80.2 °F 83.0 °F 68.4 °F 67% 29.95 in 10.0 mi ENE 5.8 mph - N/A   Clear
8:58 PM 78.3 °F - 70.0 °F 76% 29.97 in 10.0 mi ENE 3.5 mph - N/A   Clear
9:58 PM 77.2 °F - 69.1 °F 76% 29.98 in 10.0 mi East 2.3 mph - N/A   Clear
10:58 PM 75.4 °F - 67.5 °F 76% 29.98 in 10.0 mi Calm Calm - N/A   Clear
11:58 PM 75.2 °F - 65.8 °F 73% 29.99 in 10.0 mi NNW 2.3 mph - N/A   Clear